Time,TemperatureF,DewpointF,PressureIn,WindDirection,WindDirectionDegrees,WindSpeedMPH,WindSpeedGustMPH,Humidity,HourlyPrecipIn,Conditions,Clouds,dailyrainin,SoftwareType,DateUTC
2013-01-26 00:06:00,10.6,8.0,30.12,SSE,150,0.0,0.0,90,0.00,,,0.00,weatherlink.com 1.10,2013-01-26 05:06:00,
2013-01-26 00:21:00,11.0,9.0,30.13,SSE,150,0.0,0.0,90,0.00,,,0.00,weatherlink.com 1.10,2013-01-26 05:21:00,
2013-01-26 00:36:00,11.5,9.0,30.12,SSE,150,0.0,0.0,90,0.00,,,0.00,weatherlink.com 1.10,2013-01-26 05:36:00,
2013-01-26 00:51:00,12.1,10.0,30.12,SSE,150,0.0,1.0,91,0.00,,,0.00,weatherlink.com 1.10,2013-01-26 05:51:00,
2013-01-26 01:07:00,12.3,10.0,30.12,SE,138,0.0,1.0,90,0.00,,,0.00,weatherlink.com 1.10,2013-01-26 06:07:00,
2013-01-26 01:22:00,12.5,10.0,30.12,SE,138,0.0,0.0,90,0.00,,,0.00,weatherlink.com 1.10,2013-01-26 06:22:00,
2013-01-26 01:37:00,12.7,11.0,30.12,SE,138,0.0,0.0,91,0.00,,,0.00,weatherlink.com 1.10,2013-01-26 06:37:00,
2013-01-26 01:52:00,12.8,11.0,30.12,SE,138,0.0,1.0,90,0.00,,,0.00,weatherlink.com 1.10,2013-01-26 06:52:00,
2013-01-26 02:07:00,13.0,11.0,30.11,SE,138,0.0,0.0,91,0.00,,,0.00,weatherlink.com 1.10,2013-01-26 07:07:00,
2013-01-26 02:22:00,13.5,11.0,30.11,WSW,247,2.0,2.0,91,0.00,,,0.00,weatherlink.com 1.10,2013-01-26 07:22:00,
2013-01-26 02:37:00,13.7,12.0,30.11,West,259,1.0,3.0,91,0.00,,,0.00,weatherlink.com 1.10,2013-01-26 07:37:00,
2013-01-26 02:52:00,13.8,12.0,30.11,WSW,257,2.0,3.0,91,0.00,,,0.00,weatherlink.com 1.10,2013-01-26 07:52:00,
2013-01-26 03:07:00,14.0,12.0,30.12,West,268,2.0,3.0,91,0.00,,,0.00,weatherlink.com 1.10,2013-01-26 08:07:00,
2013-01-26 03:22:00,14.3,12.0,30.12,West,266,1.0,2.0,91,0.00,,,0.00,weatherlink.com 1.10,2013-01-26 08:22:00,
2013-01-26 03:37:00,14.6,13.0,30.12,West,278,0.0,3.0,91,0.00,,,0.00,weatherlink.com 1.10,2013-01-26 08:37:00,
2013-01-26 03:52:00,14.8,13.0,30.12,West,271,0.0,5.0,91,0.00,,,0.00,weatherlink.com 1.10,2013-01-26 08:52:00,
2013-01-26 04:07:00,14.9,13.0,30.13,West,271,1.0,3.0,91,0.00,,,0.00,weatherlink.com 1.10,2013-01-26 09:07:00,
2013-01-26 04:22:00,15.4,13.0,30.14,West,267,3.0,5.0,91,0.00,,,0.00,weatherlink.com 1.10,2013-01-26 09:22:00,
2013-01-26 04:37:00,15.9,14.0,30.14,West,279,5.0,6.0,91,0.00,,,0.00,weatherlink.com 1.10,2013-01-26 09:37:00,
2013-01-26 04:52:00,16.2,14.0,30.14,West,271,2.0,6.0,91,0.00,,,0.00,weatherlink.com 1.10,2013-01-26 09:52:00,
2013-01-26 05:07:00,16.4,14.0,30.15,WNW,282,4.0,6.0,91,0.00,,,0.00,weatherlink.com 1.10,2013-01-26 10:07:00,
2013-01-26 05:22:00,16.7,15.0,30.15,West,270,3.0,7.0,91,0.00,,,0.00,weatherlink.com 1.10,2013-01-26 10:22:00,
2013-01-26 05:37:00,16.8,14.0,30.16,West,276,3.0,7.0,90,0.00,,,0.00,weatherlink.com 1.10,2013-01-26 10:37:00,
2013-01-26 05:52:00,16.8,14.0,30.16,WSW,257,4.0,6.0,90,0.00,,,0.00,weatherlink.com 1.10,2013-01-26 10:52:00,
2013-01-26 06:07:00,16.8,14.0,30.17,WSW,242,3.0,5.0,90,0.00,,,0.00,weatherlink.com 1.10,2013-01-26 11:07:00,
2013-01-26 06:22:00,16.9,15.0,30.18,West,264,6.0,7.0,90,0.00,,,0.00,weatherlink.com 1.10,2013-01-26 11:22:00,
2013-01-26 06:37:00,17.1,15.0,30.19,West,274,2.0,5.0,90,0.00,,,0.00,weatherlink.com 1.10,2013-01-26 11:37:00,
2013-01-26 06:52:00,17.2,15.0,30.19,West,277,2.0,5.0,90,0.00,,,0.00,weatherlink.com 1.10,2013-01-26 11:52:00,
2013-01-26 07:07:00,17.2,15.0,30.20,West,261,2.0,6.0,90,0.00,,,0.00,weatherlink.com 1.10,2013-01-26 12:07:00,
2013-01-26 07:22:00,17.3,15.0,30.20,West,259,3.0,6.0,89,0.00,,,0.00,weatherlink.com 1.10,2013-01-26 12:22:00,
2013-01-26 07:37:00,17.4,15.0,30.21,West,270,2.0,6.0,89,0.00,,,0.00,weatherlink.com 1.10,2013-01-26 12:37:00,
2013-01-26 07:52:00,17.6,15.0,30.21,WNW,292,3.0,5.0,89,0.00,,,0.00,weatherlink.com 1.10,2013-01-26 12:52:00,
2013-01-26 08:07:00,18.2,15.0,30.22,NW,318,4.0,7.0,88,0.00,,,0.00,weatherlink.com 1.10,2013-01-26 13:07:00,
2013-01-26 08:22:00,18.5,15.0,30.22,NW,312,5.0,8.0,87,0.00,,,0.00,weatherlink.com 1.10,2013-01-26 13:22:00,
2013-01-26 08:37:00,18.5,15.0,30.22,NW,323,1.0,8.0,86,0.00,,,0.00,weatherlink.com 1.10,2013-01-26 13:37:00,
2013-01-26 08:52:00,18.8,15.0,30.23,West,266,3.0,8.0,85,0.00,,,0.00,weatherlink.com 1.10,2013-01-26 13:52:00,
2013-01-26 09:07:00,18.9,14.0,30.23,NNW,328,3.0,10.0,82,0.00,,,0.00,weatherlink.com 1.10,2013-01-26 14:07:00,
2013-01-26 09:22:00,19.1,15.0,30.23,NW,304,4.0,9.0,82,0.00,,,0.00,weatherlink.com 1.10,2013-01-26 14:22:00,
2013-01-26 09:38:00,19.3,14.0,30.24,NW,314,5.0,10.0,81,0.00,,,0.00,weatherlink.com 1.10,2013-01-26 14:38:00,
2013-01-26 09:53:00,19.4,13.0,30.25,NW,319,7.0,12.0,77,0.00,,,0.00,weatherlink.com 1.10,2013-01-26 14:53:00,
2013-01-26 10:08:00,19.7,13.0,30.25,NNW,339,4.0,9.0,76,0.00,,,0.00,weatherlink.com 1.10,2013-01-26 15:08:00,
2013-01-26 10:23:00,20.0,13.0,30.25,NNW,344,3.0,9.0,75,0.00,,,0.00,weatherlink.com 1.10,2013-01-26 15:23:00,
2013-01-26 10:38:00,20.4,13.0,30.26,NNW,329,8.0,10.0,74,0.00,,,0.00,weatherlink.com 1.10,2013-01-26 15:38:00,
2013-01-26 10:53:00,20.8,13.0,30.27,NW,317,8.0,11.0,72,0.00,,,0.00,weatherlink.com 1.10,2013-01-26 15:53:00,
2013-01-26 11:08:00,21.1,13.0,30.28,NW,306,6.0,10.0,72,0.00,,,0.00,weatherlink.com 1.10,2013-01-26 16:08:00,
2013-01-26 11:23:00,21.1,13.0,30.28,West,273,3.0,11.0,72,0.00,,,0.00,weatherlink.com 1.10,2013-01-26 16:23:00,
2013-01-26 11:38:00,21.6,14.0,30.27,NW,326,6.0,10.0,71,0.00,,,0.00,weatherlink.com 1.10,2013-01-26 16:38:00,
2013-01-26 11:53:00,21.8,13.0,30.26,WNW,301,4.0,10.0,69,0.00,,,0.00,weatherlink.com 1.10,2013-01-26 16:53:00,
2013-01-26 12:08:00,22.2,14.0,30.24,NW,325,10.0,11.0,71,0.00,,,0.00,weatherlink.com 1.10,2013-01-26 17:08:00,
2013-01-26 12:23:00,22.1,13.0,30.24,NW,306,7.0,12.0,68,0.00,,,0.00,weatherlink.com 1.10,2013-01-26 17:23:00,
2013-01-26 12:38:00,22.8,14.0,30.24,NNW,328,7.0,11.0,68,0.00,,,0.00,weatherlink.com 1.10,2013-01-26 17:38:00,
2013-01-26 12:53:00,22.8,14.0,30.24,NW,318,11.0,12.0,70,0.00,,,0.00,weatherlink.com 1.10,2013-01-26 17:53:00,
2013-01-26 13:08:00,23.2,14.0,30.24,NW,322,9.0,14.0,67,0.00,,,0.00,weatherlink.com 1.10,2013-01-26 18:08:00,
2013-01-26 13:23:00,23.3,13.0,30.24,NW,305,7.0,14.0,66,0.00,,,0.00,weatherlink.com 1.10,2013-01-26 18:23:00,
2013-01-26 13:38:00,23.9,14.0,30.24,NW,311,7.0,13.0,66,0.00,,,0.00,weatherlink.com 1.10,2013-01-26 18:38:00,
2013-01-26 13:53:00,24.5,15.0,30.24,NW,306,9.0,12.0,66,0.00,,,0.00,weatherlink.com 1.10,2013-01-26 18:53:00,
2013-01-26 14:08:00,24.5,15.0,30.25,NNW,338,7.0,14.0,67,0.00,,,0.00,weatherlink.com 1.10,2013-01-26 19:08:00,
2013-01-26 14:23:00,24.9,15.0,30.25,NW,318,7.0,12.0,67,0.00,,,0.00,weatherlink.com 1.10,2013-01-26 19:23:00,
2013-01-26 14:38:00,25.0,15.0,30.25,WNW,286,11.0,13.0,65,0.00,,,0.00,weatherlink.com 1.10,2013-01-26 19:38:00,
2013-01-26 14:53:00,25.1,14.0,30.26,NW,321,11.0,16.0,63,0.00,,,0.00,weatherlink.com 1.10,2013-01-26 19:53:00,
2013-01-26 15:08:00,25.5,15.0,30.26,NW,308,8.0,13.0,64,0.00,,,0.00,weatherlink.com 1.10,2013-01-26 20:08:00,
2013-01-26 15:23:00,26.0,15.0,30.27,NW,304,9.0,14.0,63,0.00,,,0.00,weatherlink.com 1.10,2013-01-26 20:23:00,
2013-01-26 15:38:00,26.0,14.0,30.27,NW,309,9.0,10.0,62,0.00,,,0.00,weatherlink.com 1.10,2013-01-26 20:38:00,
2013-01-26 15:53:00,25.8,14.0,30.27,NNW,329,7.0,13.0,61,0.00,,,0.00,weatherlink.com 1.10,2013-01-26 20:53:00,
2013-01-26 16:08:00,26.0,14.0,30.27,WNW,299,2.0,8.0,62,0.00,,,0.00,weatherlink.com 1.10,2013-01-26 21:08:00,
2013-01-26 16:23:00,26.1,14.0,30.28,NW,312,5.0,10.0,61,0.00,,,0.00,weatherlink.com 1.10,2013-01-26 21:23:00,
2013-01-26 16:38:00,25.7,14.0,30.28,NNW,333,7.0,10.0,61,0.00,,,0.00,weatherlink.com 1.10,2013-01-26 21:38:00,
2013-01-26 16:53:00,25.3,14.0,30.29,NW,309,7.0,8.0,62,0.00,,,0.00,weatherlink.com 1.10,2013-01-26 21:53:00,
2013-01-26 17:08:00,24.9,14.0,30.30,NW,312,2.0,8.0,63,0.00,,,0.00,weatherlink.com 1.10,2013-01-26 22:08:00,
2013-01-26 17:23:00,24.4,14.0,30.30,NW,317,2.0,6.0,65,0.00,,,0.00,weatherlink.com 1.10,2013-01-26 22:23:00,
2013-01-26 17:38:00,23.7,14.0,30.31,NW,311,1.0,4.0,66,0.00,,,0.00,weatherlink.com 1.10,2013-01-26 22:38:00,
2013-01-26 17:53:00,23.3,14.0,30.31,NW,324,0.0,3.0,67,0.00,,,0.00,weatherlink.com 1.10,2013-01-26 22:53:00,
2013-01-26 18:08:00,22.9,14.0,30.32,NW,323,0.0,2.0,69,0.00,,,0.00,weatherlink.com 1.10,2013-01-26 23:08:00,
2013-01-26 18:23:00,22.2,13.0,30.33,West,272,2.0,2.0,69,0.00,,,0.00,weatherlink.com 1.10,2013-01-26 23:23:00,
2013-01-26 18:39:00,21.7,14.0,30.33,West,271,0.0,1.0,71,0.00,,,0.00,weatherlink.com 1.10,2013-01-26 23:39:00,
2013-01-26 18:54:00,21.5,13.0,30.34,WNW,293,0.0,1.0,71,0.00,,,0.00,weatherlink.com 1.10,2013-01-26 23:54:00,
2013-01-26 19:09:00,20.7,13.0,30.34,WNW,293,0.0,1.0,73,0.00,,,0.00,weatherlink.com 1.10,2013-01-27 00:09:00,
2013-01-26 19:24:00,20.1,13.0,30.35,WNW,293,0.0,2.0,74,0.00,,,0.00,weatherlink.com 1.10,2013-01-27 00:24:00,
2013-01-26 19:39:00,19.1,13.0,30.36,West,279,0.0,1.0,77,0.00,,,0.00,weatherlink.com 1.10,2013-01-27 00:39:00,
2013-01-26 19:54:00,20.1,13.0,30.36,West,279,0.0,2.0,75,0.00,,,0.00,weatherlink.com 1.10,2013-01-27 00:54:00,
2013-01-26 20:09:00,19.8,13.0,30.36,West,279,0.0,0.0,75,0.00,,,0.00,weatherlink.com 1.10,2013-01-27 01:09:00,
2013-01-26 20:24:00,18.5,13.0,30.37,West,279,0.0,0.0,79,0.00,,,0.00,weatherlink.com 1.10,2013-01-27 01:24:00,
2013-01-26 20:39:00,17.9,13.0,30.38,West,279,0.0,0.0,80,0.00,,,0.00,weatherlink.com 1.10,2013-01-27 01:39:00,
2013-01-26 20:54:00,17.8,13.0,30.38,West,279,0.0,0.0,80,0.00,,,0.00,weatherlink.com 1.10,2013-01-27 01:54:00,
2013-01-26 21:09:00,17.2,12.0,30.39,West,279,0.0,0.0,81,0.00,,,0.00,weatherlink.com 1.10,2013-01-27 02:09:00,
2013-01-26 21:24:00,16.6,12.0,30.39,West,279,0.0,0.0,83,0.00,,,0.00,weatherlink.com 1.10,2013-01-27 02:24:00,
2013-01-26 21:39:00,16.6,12.0,30.40,West,279,0.0,0.0,82,0.00,,,0.00,weatherlink.com 1.10,2013-01-27 02:39:00,
2013-01-26 21:54:00,16.1,12.0,30.41,West,279,0.0,0.0,83,0.00,,,0.00,weatherlink.com 1.10,2013-01-27 02:54:00,
2013-01-26 22:09:00,15.7,12.0,30.41,West,279,0.0,1.0,85,0.00,,,0.00,weatherlink.com 1.10,2013-01-27 03:09:00,
2013-01-26 22:24:00,15.7,12.0,30.41,West,279,0.0,0.0,85,0.00,,,0.00,weatherlink.com 1.10,2013-01-27 03:24:00,
2013-01-26 22:39:00,15.4,12.0,30.42,West,279,0.0,0.0,86,0.00,,,0.00,weatherlink.com 1.10,2013-01-27 03:39:00,
2013-01-26 22:54:00,15.0,12.0,30.43,West,279,0.0,0.0,87,0.00,,,0.00,weatherlink.com 1.10,2013-01-27 03:54:00,
2013-01-26 23:09:00,14.8,11.0,30.43,West,279,0.0,0.0,86,0.00,,,0.00,weatherlink.com 1.10,2013-01-27 04:09:00,
2013-01-26 23:24:00,13.8,11.0,30.44,West,278,0.0,2.0,88,0.00,,,0.00,weatherlink.com 1.10,2013-01-27 04:24:00,
2013-01-26 23:39:00,14.4,12.0,30.44,West,278,0.0,0.0,89,0.00,,,0.00,weatherlink.com 1.10,2013-01-27 04:39:00,
2013-01-26 23:54:00,14.2,11.0,30.44,West,278,0.0,0.0,86,0.00,,,0.00,weatherlink.com 1.10,2013-01-27 04:54:00,